FW6635 Weather Reports


time (UTC)temp
C
wind
direction
speed
KPH
gust
KPH
rain 1hr
cm
rain 24hr
cm
rain mn
cm
humidity
%
barometer
mb
20260505200050 26 176 6.4 16.1 0.00 0.00 0.00 41 1016.6
20260505194604 26 144 4.8 14.5 0.00 0.00 0.00 43 1016.7
20260505193052 27 238 6.4 16.1 0.00 0.00 0.00 43 1016.8
20260505191556 26 228 4.8 19.3 0.00 0.00 0.00 43 1017.2
20260505190046 27 169 3.2 20.9 0.00 0.00 0.00 45 1017.6
20260505184547 26 153 3.2 17.7 0.00 0.00 0.00 47 1017.8
20260505183054 27 197 9.7 19.3 0.00 0.00 0.00 47 1018.3
20260505181555 27 252 8.0 14.5 0.00 0.00 0.00 46 1018.4
20260505180057 26 261 3.2 11.3 0.00 0.00 0.00 47 1018.3
20260505174547 27 265 3.2 22.5 0.00 0.00 0.00 45 1018.2
20260505173059 26 167 8.0 20.9 0.00 0.00 0.00 44 1018.2
20260505171618 26 209 6.4 16.1 0.00 0.00 0.00 47 1018.2
20260505170053 26 173 4.8 16.1 0.00 0.00 0.00 46 1018.3
20260505164546 26 172 8.0 19.3 0.00 0.00 0.00 45 1018.6
20260505163045 25 214 4.8 12.9 0.00 0.00 0.00 51 1018.9
20260505161553 25 208 4.8 14.5 0.00 0.00 0.00 53 1018.8
20260505153051 23 245 4.8 12.9 0.00 0.00 0.00 59 1019.4
20260505151553 23 257 3.2 16.1 0.00 0.00 0.00 61 1019.5
20260505150110 23 208 8.0 16.1 0.00 0.00 0.00 63 1019.5
20260505124557 16 189 3.2 11.3 0.00 0.00 0.00 82 1019.2
20260505123100 16 199 1.6 6.4 0.00 0.00 0.00 87 1019.0
20260505121619 15 265 0.0 3.2 0.00 0.00 0.00 92 1018.9
20260505120047 13 0 0.0 0.0 0.00 0.00 0.00 97 1018.7
20260505114551 12 0 0.0 0.0 0.00 0.00 0.00 97 1018.8
20260505113048 10 0 0.0 0.0 0.00 0.00 0.00 96 1018.7
20260505111548 9 0 0.0 0.0 0.00 0.00 0.00 96 1018.6
20260505101546 8 0 0.0 0.0 0.00 0.00 0.00 96 1018.2
20260505100123 8 0 0.0 0.0 0.00 0.00 0.00 95 1018.1
20260505094550 9 0 0.0 0.0 0.00 0.00 0.00 95 1018.1
20260505093052 9 0 0.0 0.0 0.00 0.00 0.00 95 1018.1
20260505091616 9 0 0.0 0.0 0.00 0.00 0.00 95 1018.1
20260505090100 9 0 0.0 0.0 0.00 0.00 0.00 95 1017.9
20260505084549 9 0 0.0 0.0 0.00 0.00 0.00 95 1017.7
20260505083054 10 0 0.0 0.0 0.00 0.00 0.00 95 1017.7
20260505081550 10 0 0.0 0.0 0.00 0.00 0.00 94 1017.7
20260505080055 10 0 0.0 0.0 0.00 0.00 0.00 94 1017.6
20260505074549 10 0 0.0 0.0 0.00 0.00 0.00 94 1017.6
20260505073057 10 0 0.0 0.0 0.00 0.00 0.00 93 1017.5
20260505071549 10 0 0.0 0.0 0.00 0.00 0.00 93 1017.6
20260505070059 10 0 0.0 0.0 0.00 0.00 0.00 92 1017.5
20260505064555 10 0 0.0 0.0 0.00 0.00 0.00 91 1017.6
20260505063052 11 0 0.0 0.0 0.00 0.00 0.00 90 1017.7
20260505061554 11 0 0.0 0.0 0.00 0.00 0.00 88 1017.7
20260505060052 11 0 0.0 0.0 0.00 0.00 0.00 87 1017.9
20260505054617 12 0 0.0 0.0 0.00 0.00 0.00 86 1018.0
20260505053056 12 0 0.0 0.0 0.00 0.00 0.00 84 1018.0
20260505051547 12 0 0.0 0.0 0.00 0.00 0.00 81 1018.1
20260505041600 15 0 0.0 0.0 0.00 0.00 0.00 73 1018.5
20260505034551 15 0 0.0 0.0 0.00 0.00 0.00 71 1018.6
20260505033053 16 0 0.0 1.6 0.00 0.00 0.00 70 1018.7
20260505031550 16 0 0.0 1.6 0.00 0.00 0.00 69 1018.8
20260505030101 16 154 0.0 4.8 0.00 0.00 0.00 68 1018.7
20260505024556 16 153 1.6 8.0 0.00 0.00 0.00 66 1018.5
20260505023053 17 158 0.0 6.4 0.00 0.00 0.00 65 1018.5
20260505021558 17 154 3.2 8.0 0.00 0.00 0.00 65 1018.4
20260505020058 18 0 1.6 8.0 0.00 0.00 0.00 63 1018.3
20260505014556 18 166 4.8 9.7 0.00 0.00 0.00 63 1018.1
20260505013050 18 172 3.2 9.7 0.00 0.00 0.00 62 1017.9
20260505011551 19 0 4.8 16.1 0.00 0.00 0.00 61 1017.7
20260505010114 19 195 3.2 11.3 0.00 0.00 0.00 60 1017.6
20260505004552 20 158 1.6 9.7 0.00 0.00 0.00 59 1017.4
20260505003055 20 157 8.0 14.5 0.00 0.00 0.00 58 1017.2
20260505001550 20 169 4.8 12.9 0.00 0.00 0.00 58 1017.1
20260505000058 19 116 0.0 4.8 0.00 0.00 0.00 64 1016.8
20260504234551 20 0 0.0 0.0 0.00 0.00 0.00 60 1016.7
20260504233054 21 0 0.0 1.6 0.00 0.00 0.00 58 1016.5
20260504231546 23 0 0.0 4.8 0.00 0.00 0.00 49 1016.5
20260504230107 24 188 0.0 8.0 0.00 0.00 0.00 43 1016.6
20260504224601 23 205 1.6 6.4 0.00 0.00 0.00 43 1016.5
20260504223047 23 191 3.2 14.5 0.00 0.00 0.00 39 1016.7
20260504221549 25 213 4.8 16.1 0.00 0.00 0.00 37 1016.7
20260504220057 25 223 8.0 17.7 0.00 0.00 0.00 35 1016.5
20260504214548 25 205 6.4 12.9 0.00 0.00 0.00 35 1016.5
20260504213048 25 155 6.4 16.1 0.00 0.00 0.00 34 1016.5
20260504211546 25 197 9.7 19.3 0.00 0.00 0.00 33 1016.5
20260504210100 26 173 9.7 22.5 0.00 0.00 0.00 35 1016.7
20260504204550 26 201 6.4 16.1 0.00 0.00 0.00 34 1016.7
20260504203051 26 236 4.8 14.5 0.00 0.00 0.00 36 1016.8
20260504201551 26 193 4.8 19.3 0.00 0.00 0.00 36 1016.8